Location: Peralejo
(40.5415°N, 4.1259°W)
Time: 01:57:46
(UTC+00:00)

Cosmos 1503 Rocket - Pass Details

Date: 18 April 2024
Orbit: 750 x 789 km, 74.0° (Epoch: 18 May)

Event Time Altitude Azimuth Distance (km) Brightness Sun altitude
Rises 20:33:11 0° 342° (NNW) 3,293 8.1 -17.1°
Reaches altitude 10° 20:35:36 10° 345° (NNW) 2,360 7.2 -17.5°
Maximum altitude 20:40:58 73° 70° (ENE) 828 4.0 -18.4°
Enters shadow 20:43:29 32° 148° (SSE) 1,325 4.7 -18.8°
